Location: Caseificio
(44.7500°N, 11.0500°E)
Time: 21:22:05
(UTC+00:00)

NOSS 0 Rocket - Pass Details

Date: 26 May 2022
Orbit: 935 x 954 km, 70.0° (Epoch: 29 June)

Event Time Altitude Azimuth Distance (km) Brightness Sun altitude
Exits shadow 00:29:24 36° 234° (SW) 1,462 4.5 -21.9°
Maximum altitude 00:31:55 63° 301° (WNW) 1,063 4.2 -21.7°
Drops below altitude 10° 00:38:07 10° 22° (NNE) 2,689 7.5 -21.3°
Sets 00:40:42 0° 26° (NNE) 3,637 8.6 -21.2°
